Time,TemperatureF,DewpointF,PressureIn,WindDirection,WindDirectionDegrees,WindSpeedMPH,WindSpeedGustMPH,Humidity,HourlyPrecipIn,Conditions,Clouds,dailyrainin,SoftwareType,DateUTC
2013-05-05 00:02:00,55.0,31.0,30.10,East,88,0.0,0.0,40,0.00,,,0.00,,2013-05-05 04:02:00,
2013-05-05 00:12:00,55.0,31.0,30.10,East,88,0.0,0.0,40,0.00,,,0.00,,2013-05-05 04:12:00,
2013-05-05 00:23:00,57.0,32.0,30.11,East,92,1.0,4.0,38,0.00,,,0.00,,2013-05-05 04:23:00,
2013-05-05 00:32:00,55.0,32.0,30.10,ESE,111,0.0,0.0,42,0.00,,,0.00,,2013-05-05 04:32:00,
2013-05-05 00:43:00,55.0,32.0,30.10,ESE,111,0.0,0.0,42,0.00,,,0.00,,2013-05-05 04:43:00,
2013-05-05 00:53:00,52.0,33.0,30.10,ESE,114,0.0,0.0,49,0.00,,,0.00,,2013-05-05 04:53:00,
2013-05-05 01:02:00,51.0,33.0,30.10,ESE,109,0.0,0.0,49,0.00,,,0.00,,2013-05-05 05:02:00,
2013-05-05 01:12:00,51.0,33.0,30.10,ESE,109,0.0,0.0,49,0.00,,,0.00,,2013-05-05 05:12:00,
2013-05-05 01:22:00,52.0,33.0,30.11,ESE,118,0.0,4.0,49,0.00,,,0.00,,2013-05-05 05:22:00,
2013-05-05 01:32:00,50.0,34.0,30.10,ESE,118,0.0,0.0,53,0.00,,,0.00,,2013-05-05 05:32:00,
2013-05-05 01:42:00,50.0,34.0,30.10,ESE,118,0.0,0.0,53,0.00,,,0.00,,2013-05-05 05:42:00,
2013-05-05 01:52:00,49.0,34.0,30.10,ESE,111,0.0,0.0,57,0.00,,,0.00,,2013-05-05 05:52:00,
2013-05-05 02:01:00,48.0,34.0,30.10,ESE,111,0.0,0.0,59,0.00,,,0.00,,2013-05-05 06:01:00,
2013-05-05 02:12:00,48.0,34.0,30.10,ESE,111,0.0,0.0,59,0.00,,,0.00,,2013-05-05 06:12:00,
2013-05-05 02:21:00,48.0,35.0,30.10,ESE,121,0.0,0.0,60,0.00,,,0.00,,2013-05-05 06:21:00,
2013-05-05 02:32:00,47.0,37.0,30.10,ESE,121,0.0,0.0,67,0.00,,,0.00,,2013-05-05 06:32:00,
2013-05-05 02:42:00,47.0,37.0,30.10,ESE,121,0.0,0.0,67,0.00,,,0.00,,2013-05-05 06:42:00,
2013-05-05 02:52:00,47.0,37.0,30.10,ESE,121,0.0,0.0,68,0.00,,,0.00,,2013-05-05 06:52:00,
2013-05-05 03:01:00,46.0,36.0,30.10,ESE,121,0.0,0.0,67,0.00,,,0.00,,2013-05-05 07:01:00,
2013-05-05 03:11:00,46.0,36.0,30.10,ESE,121,0.0,0.0,67,0.00,,,0.00,,2013-05-05 07:11:00,
2013-05-05 03:22:00,46.0,36.0,30.10,ESE,121,0.0,0.0,68,0.00,,,0.00,,2013-05-05 07:22:00,
2013-05-05 03:32:00,46.0,36.0,30.10,ESE,121,0.0,0.0,68,0.00,,,0.00,,2013-05-05 07:32:00,
2013-05-05 03:42:00,46.0,36.0,30.10,ESE,121,0.0,0.0,68,0.00,,,0.00,,2013-05-05 07:42:00,
2013-05-05 03:52:00,45.0,36.0,30.09,ESE,121,0.0,0.0,71,0.00,,,0.00,,2013-05-05 07:52:00,
2013-05-05 04:02:00,44.0,36.0,30.09,ESE,121,0.0,0.0,72,0.00,,,0.00,,2013-05-05 08:02:00,
2013-05-05 04:11:00,44.0,36.0,30.09,ESE,121,0.0,0.0,72,0.00,,,0.00,,2013-05-05 08:11:00,
2013-05-05 04:21:00,44.0,37.0,30.09,ESE,121,0.0,0.0,75,0.00,,,0.00,,2013-05-05 08:21:00,
2013-05-05 04:32:00,43.0,36.0,30.09,ESE,121,0.0,0.0,77,0.00,,,0.00,,2013-05-05 08:32:00,
2013-05-05 04:42:00,43.0,36.0,30.09,ESE,121,0.0,0.0,77,0.00,,,0.00,,2013-05-05 08:42:00,
2013-05-05 04:53:00,43.0,37.0,30.09,ESE,121,0.0,0.0,80,0.00,,,0.00,,2013-05-05 08:53:00,
2013-05-05 05:01:00,42.0,37.0,30.09,ESE,121,0.0,0.0,82,0.00,,,0.00,,2013-05-05 09:01:00,
2013-05-05 05:11:00,42.0,37.0,30.09,ESE,121,0.0,0.0,82,0.00,,,0.00,,2013-05-05 09:11:00,
2013-05-05 05:21:00,42.0,37.0,30.09,ESE,121,0.0,0.0,82,0.00,,,0.00,,2013-05-05 09:21:00,
2013-05-05 05:33:00,42.0,37.0,30.09,ESE,121,0.0,0.0,83,0.00,,,0.00,,2013-05-05 09:33:00,
2013-05-05 05:42:00,42.0,37.0,30.09,ESE,121,0.0,0.0,83,0.00,,,0.00,,2013-05-05 09:42:00,
2013-05-05 05:52:00,41.0,36.0,30.09,ESE,121,0.0,0.0,82,0.00,,,0.00,,2013-05-05 09:52:00,
2013-05-05 06:03:00,41.0,36.0,30.09,ESE,121,0.0,0.0,83,0.00,,,0.00,,2013-05-05 10:03:00,
2013-05-05 06:12:00,41.0,36.0,30.09,ESE,121,0.0,0.0,83,0.00,,,0.00,,2013-05-05 10:12:00,
2013-05-05 06:22:00,41.0,38.0,30.09,ESE,121,0.0,0.0,88,0.00,,,0.00,,2013-05-05 10:22:00,
2013-05-05 06:32:00,41.0,36.0,30.10,ESE,121,0.0,0.0,83,0.00,,,0.00,,2013-05-05 10:32:00,
2013-05-05 06:42:00,41.0,36.0,30.10,ESE,121,0.0,0.0,83,0.00,,,0.00,,2013-05-05 10:42:00,
2013-05-05 06:53:00,40.0,36.0,30.10,ESE,121,0.0,0.0,84,0.00,,,0.00,,2013-05-05 10:53:00,
2013-05-05 07:01:00,40.0,36.0,30.10,ESE,121,0.0,0.0,84,0.00,,,0.00,,2013-05-05 11:01:00,
2013-05-05 07:12:00,40.0,36.0,30.10,ESE,121,0.0,0.0,84,0.00,,,0.00,,2013-05-05 11:12:00,
2013-05-05 07:22:00,41.0,37.0,30.11,ESE,121,0.0,0.0,84,0.00,,,0.00,,2013-05-05 11:22:00,
2013-05-05 07:32:00,41.0,37.0,30.11,ESE,121,0.0,0.0,85,0.00,,,0.00,,2013-05-05 11:32:00,
2013-05-05 07:42:00,41.0,37.0,30.11,ESE,121,0.0,0.0,85,0.00,,,0.00,,2013-05-05 11:42:00,
2013-05-05 07:52:00,43.0,38.0,30.12,ESE,121,0.0,0.0,84,0.00,,,0.00,,2013-05-05 11:52:00,
2013-05-05 08:02:00,45.0,39.0,30.12,SE,124,0.0,0.0,79,0.00,,,0.00,,2013-05-05 12:02:00,
2013-05-05 08:11:00,45.0,39.0,30.12,SE,124,0.0,0.0,79,0.00,,,0.00,,2013-05-05 12:11:00,
2013-05-05 08:21:00,47.0,39.0,30.12,SE,124,0.0,0.0,74,0.00,,,0.00,,2013-05-05 12:21:00,
2013-05-05 08:32:00,49.0,41.0,30.12,SE,124,0.0,0.0,73,0.00,,,0.00,,2013-05-05 12:32:00,
2013-05-05 08:42:00,49.0,41.0,30.12,SE,124,0.0,0.0,73,0.00,,,0.00,,2013-05-05 12:42:00,
2013-05-05 08:52:00,53.0,43.0,30.12,SE,124,0.0,0.0,70,0.00,,,0.00,,2013-05-05 12:52:00,
2013-05-05 09:01:00,56.0,44.0,30.12,SE,124,0.0,0.0,64,0.00,,,0.00,,2013-05-05 13:01:00,
2013-05-05 09:11:00,56.0,44.0,30.12,SE,124,0.0,0.0,64,0.00,,,0.00,,2013-05-05 13:11:00,
2013-05-05 09:21:00,59.0,44.0,30.12,SE,124,0.0,0.0,58,0.00,,,0.00,,2013-05-05 13:21:00,
2013-05-05 09:32:00,61.0,42.0,30.11,SE,144,0.0,3.0,49,0.00,,,0.00,,2013-05-05 13:32:00,
2013-05-05 09:42:00,61.0,42.0,30.11,SE,144,0.0,3.0,49,0.00,,,0.00,,2013-05-05 13:42:00,
2013-05-05 09:52:00,64.0,41.0,30.12,ESE,122,2.0,4.0,43,0.00,,,0.00,,2013-05-05 13:52:00,
2013-05-05 10:02:00,66.0,41.0,30.12,SE,142,0.0,4.0,40,0.00,,,0.00,,2013-05-05 14:02:00,
2013-05-05 10:11:00,67.0,41.0,30.12,SE,135,3.0,9.0,38,0.00,,,0.00,,2013-05-05 14:11:00,
2013-05-05 10:21:00,67.0,41.0,30.12,SE,135,3.0,9.0,38,0.00,,,0.00,,2013-05-05 14:21:00,
2013-05-05 10:32:00,68.0,42.0,30.11,East,96,0.0,5.0,39,0.00,,,0.00,,2013-05-05 14:32:00,
2013-05-05 10:42:00,68.0,42.0,30.11,East,96,0.0,5.0,39,0.00,,,0.00,,2013-05-05 14:42:00,
2013-05-05 10:52:00,69.0,42.0,30.11,East,88,0.0,0.0,37,0.00,,,0.00,,2013-05-05 14:52:00,
2013-05-05 11:02:00,70.0,43.0,30.11,ENE,65,0.0,5.0,37,0.00,,,0.00,,2013-05-05 15:02:00,
2013-05-05 11:11:00,70.0,43.0,30.11,ENE,65,0.0,5.0,37,0.00,,,0.00,,2013-05-05 15:11:00,
2013-05-05 11:21:00,71.0,41.0,30.11,ENE,65,1.0,7.0,34,0.00,,,0.00,,2013-05-05 15:21:00,
2013-05-05 11:33:00,72.0,43.0,30.10,NNW,335,2.0,9.0,35,0.00,,,0.00,,2013-05-05 15:33:00,
2013-05-05 11:43:00,72.0,43.0,30.10,NNW,335,2.0,9.0,35,0.00,,,0.00,,2013-05-05 15:43:00,
2013-05-05 11:53:00,71.0,40.0,30.10,NE,40,4.0,10.0,33,0.00,,,0.00,,2013-05-05 15:53:00,
2013-05-05 12:03:00,72.0,40.0,30.10,North,355,7.0,11.0,31,0.00,,,0.00,,2013-05-05 16:03:00,
2013-05-05 12:12:00,72.0,40.0,30.10,North,355,7.0,11.0,31,0.00,,,0.00,,2013-05-05 16:12:00,
2013-05-05 12:23:00,72.0,41.0,30.10,NNW,346,2.0,10.0,32,0.00,,,0.00,,2013-05-05 16:23:00,
2013-05-05 12:32:00,72.0,41.0,30.10,NNW,340,6.0,9.0,32,0.00,,,0.00,,2013-05-05 16:32:00,
2013-05-05 12:42:00,72.0,41.0,30.10,NNW,340,6.0,9.0,32,0.00,,,0.00,,2013-05-05 16:42:00,
2013-05-05 12:53:00,72.0,41.0,30.10,NNW,332,5.0,11.0,33,0.00,,,0.00,,2013-05-05 16:53:00,
2013-05-05 13:02:00,72.0,41.0,30.09,WNW,289,9.0,12.0,33,0.00,,,0.00,,2013-05-05 17:02:00,
2013-05-05 13:12:00,72.0,41.0,30.09,WNW,289,9.0,12.0,33,0.00,,,0.00,,2013-05-05 17:12:00,
2013-05-05 13:23:00,71.0,42.0,30.08,WNW,297,0.0,9.0,35,0.00,,,0.00,,2013-05-05 17:23:00,
2013-05-05 13:32:00,72.0,41.0,30.08,NW,326,5.0,10.0,32,0.00,,,0.00,,2013-05-05 17:32:00,
2013-05-05 13:42:00,72.0,41.0,30.08,NW,326,5.0,10.0,32,0.00,,,0.00,,2013-05-05 17:42:00,
2013-05-05 13:52:00,72.0,41.0,30.08,NNW,343,0.0,9.0,33,0.00,,,0.00,,2013-05-05 17:52:00,
2013-05-05 14:01:00,73.0,41.0,30.07,NNE,12,6.0,9.0,32,0.00,,,0.00,,2013-05-05 18:01:00,
2013-05-05 14:12:00,73.0,41.0,30.07,NNE,12,6.0,9.0,32,0.00,,,0.00,,2013-05-05 18:12:00,
2013-05-05 14:21:00,74.0,42.0,30.07,North,5,9.0,12.0,32,0.00,,,0.00,,2013-05-05 18:21:00,
2013-05-05 14:32:00,73.0,43.0,30.06,NNW,329,5.0,12.0,34,0.00,,,0.00,,2013-05-05 18:32:00,
2013-05-05 14:42:00,73.0,43.0,30.06,NNW,329,5.0,12.0,34,0.00,,,0.00,,2013-05-05 18:42:00,
2013-05-05 14:52:00,72.0,43.0,30.06,West,275,5.0,9.0,35,0.00,,,0.00,,2013-05-05 18:52:00,
2013-05-05 15:01:00,72.0,41.0,30.06,NW,310,1.0,9.0,32,0.00,,,0.00,,2013-05-05 19:01:00,
2013-05-05 15:11:00,72.0,41.0,30.06,NW,310,1.0,9.0,32,0.00,,,0.00,,2013-05-05 19:11:00,
2013-05-05 15:21:00,72.0,43.0,30.05,West,279,3.0,10.0,35,0.00,,,0.00,,2013-05-05 19:21:00,
2013-05-05 15:32:00,74.0,44.0,30.05,WNW,299,3.0,9.0,34,0.00,,,0.00,,2013-05-05 19:32:00,
2013-05-05 15:42:00,74.0,44.0,30.05,WNW,299,3.0,9.0,34,0.00,,,0.00,,2013-05-05 19:42:00,
2013-05-05 15:52:00,75.0,43.0,30.04,NW,304,2.0,6.0,32,0.00,,,0.00,,2013-05-05 19:52:00,
2013-05-05 16:01:00,75.0,44.0,30.03,North,5,6.0,11.0,33,0.00,,,0.00,,2013-05-05 20:01:00,
2013-05-05 16:11:00,75.0,44.0,30.03,North,5,6.0,11.0,33,0.00,,,0.00,,2013-05-05 20:11:00,
2013-05-05 16:21:00,77.0,44.0,30.03,ENE,59,12.0,18.0,31,0.00,,,0.00,,2013-05-05 20:21:00,
2013-05-05 16:32:00,76.0,43.0,30.02,NE,40,12.0,18.0,31,0.00,,,0.00,,2013-05-05 20:32:00,
2013-05-05 16:42:00,76.0,43.0,30.02,NE,40,12.0,18.0,31,0.00,,,0.00,,2013-05-05 20:42:00,
2013-05-05 16:52:00,76.0,44.0,30.02,NNE,24,9.0,16.0,32,0.00,,,0.00,,2013-05-05 20:52:00,
2013-05-05 17:02:00,75.0,44.0,30.02,ENE,67,8.0,19.0,33,0.00,,,0.00,,2013-05-05 21:02:00,
2013-05-05 17:11:00,75.0,44.0,30.02,ENE,67,8.0,19.0,33,0.00,,,0.00,,2013-05-05 21:11:00,
2013-05-05 17:21:00,75.0,44.0,30.02,NE,44,8.0,15.0,33,0.00,,,0.00,,2013-05-05 21:21:00,
2013-05-05 17:33:00,75.0,44.0,30.01,NE,51,10.0,16.0,33,0.00,,,0.00,,2013-05-05 21:33:00,
2013-05-05 17:42:00,75.0,44.0,30.01,NE,51,10.0,16.0,33,0.00,,,0.00,,2013-05-05 21:42:00,
2013-05-05 17:53:00,75.0,44.0,30.01,ENE,76,8.0,16.0,33,0.00,,,0.00,,2013-05-05 21:53:00,
2013-05-05 18:02:00,75.0,43.0,30.01,NE,54,6.0,15.0,32,0.00,,,0.00,,2013-05-05 22:02:00,
2013-05-05 18:12:00,75.0,43.0,30.01,NE,54,6.0,15.0,32,0.00,,,0.00,,2013-05-05 22:12:00,
2013-05-05 18:22:00,75.0,43.0,30.01,NE,49,10.0,13.0,32,0.00,,,0.00,,2013-05-05 22:22:00,
2013-05-05 18:33:00,75.0,43.0,30.01,NNE,17,10.0,17.0,32,0.00,,,0.00,,2013-05-05 22:33:00,
2013-05-05 18:42:00,75.0,43.0,30.01,NNE,17,10.0,17.0,32,0.00,,,0.00,,2013-05-05 22:42:00,
2013-05-05 18:52:00,74.0,43.0,30.00,NNW,340,5.0,9.0,33,0.00,,,0.00,,2013-05-05 22:52:00,
2013-05-05 19:02:00,74.0,43.0,30.00,NNW,346,5.0,13.0,33,0.00,,,0.00,,2013-05-05 23:02:00,
2013-05-05 19:11:00,74.0,43.0,30.00,NNW,346,5.0,13.0,33,0.00,,,0.00,,2013-05-05 23:11:00,
2013-05-05 19:21:00,74.0,43.0,30.01,North,5,6.0,10.0,33,0.00,,,0.00,,2013-05-05 23:21:00,
2013-05-05 19:32:00,73.0,44.0,30.01,NNE,12,5.0,9.0,35,0.00,,,0.00,,2013-05-05 23:32:00,
2013-05-05 19:42:00,73.0,44.0,30.01,NNE,12,5.0,9.0,35,0.00,,,0.00,,2013-05-05 23:42:00,
2013-05-05 19:52:00,72.0,44.0,30.00,NNE,12,3.0,8.0,37,0.00,,,0.00,,2013-05-05 23:52:00,
2013-05-05 20:01:00,72.0,44.0,30.01,NNE,18,2.0,5.0,37,0.00,,,0.00,,2013-05-06 00:01:00,
2013-05-05 20:11:00,72.0,44.0,30.01,NNE,18,2.0,5.0,37,0.00,,,0.00,,2013-05-06 00:11:00,
2013-05-05 20:21:00,72.0,44.0,30.01,NNE,29,1.0,6.0,37,0.00,,,0.00,,2013-05-06 00:21:00,
2013-05-05 20:32:00,71.0,44.0,30.01,NNE,15,0.0,10.0,38,0.00,,,0.00,,2013-05-06 00:32:00,
2013-05-05 20:41:00,71.0,44.0,30.01,NNE,15,0.0,10.0,38,0.00,,,0.00,,2013-05-06 00:41:00,
2013-05-05 20:52:00,70.0,44.0,30.01,NE,34,1.0,7.0,39,0.00,,,0.00,,2013-05-06 00:52:00,
2013-05-05 21:01:00,68.0,44.0,30.01,SE,138,0.0,4.0,42,0.00,,,0.00,,2013-05-06 01:01:00,
2013-05-05 21:11:00,68.0,44.0,30.01,SE,138,0.0,4.0,42,0.00,,,0.00,,2013-05-06 01:11:00,
2013-05-05 21:21:00,68.0,41.0,30.02,SE,146,2.0,7.0,37,0.00,,,0.00,,2013-05-06 01:21:00,
2013-05-05 21:31:00,67.0,38.0,30.03,SSE,153,2.0,5.0,35,0.00,,,0.00,,2013-05-06 01:31:00,
2013-05-05 21:42:00,67.0,38.0,30.03,SSE,153,2.0,5.0,35,0.00,,,0.00,,2013-05-06 01:42:00,
2013-05-05 21:52:00,67.0,37.0,30.03,SSE,154,3.0,7.0,33,0.00,,,0.00,,2013-05-06 01:52:00,
2013-05-05 22:02:00,67.0,37.0,30.03,SSE,154,3.0,6.0,33,0.00,,,0.00,,2013-05-06 02:02:00,
2013-05-05 22:12:00,67.0,37.0,30.03,SSE,154,3.0,6.0,33,0.00,,,0.00,,2013-05-06 02:12:00,
2013-05-05 22:21:00,66.0,37.0,30.04,SSE,150,3.0,6.0,34,0.00,,,0.00,,2013-05-06 02:21:00,
2013-05-05 22:32:00,65.0,37.0,30.04,SSE,148,0.0,2.0,35,0.00,,,0.00,,2013-05-06 02:32:00,
2013-05-05 22:42:00,65.0,37.0,30.04,SSE,148,0.0,2.0,35,0.00,,,0.00,,2013-05-06 02:42:00,
2013-05-05 22:52:00,64.0,37.0,30.04,SE,141,3.0,6.0,36,0.00,,,0.00,,2013-05-06 02:52:00,
2013-05-05 23:02:00,63.0,37.0,30.05,SE,136,4.0,7.0,38,0.00,,,0.00,,2013-05-06 03:02:00,
2013-05-05 23:11:00,63.0,37.0,30.05,SE,136,4.0,7.0,38,0.00,,,0.00,,2013-05-06 03:11:00,
2013-05-05 23:22:00,63.0,37.0,30.05,SE,145,3.0,6.0,38,0.00,,,0.00,,2013-05-06 03:22:00,
2013-05-05 23:33:00,62.0,37.0,30.05,SE,142,2.0,5.0,40,0.00,,,0.00,,2013-05-06 03:33:00,
2013-05-05 23:42:00,62.0,37.0,30.05,SE,142,2.0,5.0,40,0.00,,,0.00,,2013-05-06 03:42:00,
2013-05-05 23:52:00,61.0,37.0,30.05,SE,146,0.0,3.0,41,0.00,,,0.00,,2013-05-06 03:52:00,